Stations météo

réclame
Mon MeteoGroup
Aachen-Orsbach, Allemagne (10505): Température de l'air & dewpoint: 19.02.2018 06:00:00 - 25.02.2018 06:00:00 (CET)Aachen-Orsbach, Allemagne (10505): Température de l'air 5cm & Température de l'air -5cm: 19.02.2018 06:00:00 - 25.02.2018 06:00:00 (CET)Aachen-Orsbach, Allemagne (10505): Température de l'air -20cm & Température de l'air -100cm: 19.02.2018 06:00:00 - 25.02.2018 06:00:00 (CET)Aachen-Orsbach, Allemagne (10505): Vitesse du vent & gusts: 19.02.2018 06:00:00 - 25.02.2018 06:00:00 (CET)Aachen-Orsbach, Allemagne (10505): Direction du vent: 19.02.2018 06:00:00 - 25.02.2018 06:00:00 (CET)Aachen-Orsbach, Allemagne (10505): reduced air pressure: 19.02.2018 06:00:00 - 25.02.2018 06:00:00 (CET)Aachen-Orsbach, Allemagne (10505): visibility: 19.02.2018 06:00:00 - 25.02.2018 06:00:00 (CET)Aachen-Orsbach, Allemagne (10505): Ensoleillement: 19.02.2018 06:00:00 - 25.02.2018 06:00:00 (CET)Aachen-Orsbach, Allemagne (10505): Quantités de précipitations: 19.02.2018 06:00:00 - 25.02.2018 06:00:00 (CET)
Date & Time tt [°C] td [°C] tt 5cm [°C] tt -5cm [°C] tt -20cm [°C] tt -100cm [°C] ff [km/h] ff [knt] fx [km/h] fx [knt] dd ppp [hPa] vv [km] sd [min] rr [mm]
25.02.2018 06:00:00 -5,7 -11,5 -7,0 -1,7 0,6 5,0 35 19 50 27 ENE 1027,4 37 0 0,0
25.02.2018 05:00:00 -5,1 -11,7 -6,5 -1,5 0,6 5,0 37 20 52 28 E 1026,7 36 0 0,0
25.02.2018 04:00:00 -4,9 -11,2 -6,4 -1,3 0,6 5,0 34 18 49 26 E 1026,4 46 0 0,0
25.02.2018 03:00:00 -4,2 -11,4 -5,6 -1,1 0,6 5,0 33 18 49 26 E 1026,4 55 0 0,0
25.02.2018 02:00:00 -3,8 -11,5 -5,3 -0,9 0,6 5,0 32 17 45 24 E 1026,3 70 0 0,0
25.02.2018 01:00:00 -3,2 -11,4 -4,7 -0,7 0,6 5,0 32 17 53 28 E 1026,0 62 0 0,0
25.02.2018 00:00:00 -2,8 -10,9 -4,4 -0,5 0,6 5,0 34 18 47 26 E 1026,0 64 0 0,0
24.02.2018 23:00:00 -2,5 -9,5 -4,1 -0,3 0,6 5,0 34 18 51 27 E 1025,6 43 0 0,0
24.02.2018 22:00:00 -1,8 -9,0 -3,4 -0,2 0,6 5,0 35 19 54 29 E 1025,2 34 0 0,0
24.02.2018 21:00:00 -1,5 -8,2 -2,8 -0,2 0,6 5,0 39 21 54 29 E 1024,6 27 0 0,0
24.02.2018 20:00:00 -1,3 -7,5 -2,6 -0,2 0,6 5,0 39 21 62 33 E 1024,4 27 0 0,0
24.02.2018 19:00:00 -0,7 -8,3 -1,9 -0,2 0,6 5,0 41 22 64 35 E 1023,9 33 0 0,0
24.02.2018 18:00:00 0,3 -7,6 -0,8 -0,3 0,6 5,0 37 20 54 29 E 1023,2 38 17 0,0
24.02.2018 17:00:00 1,8 -6,4 1,4 -0,3 0,6 5,0 33 18 56 30 ENE 1022,7 34 30 0,0
24.02.2018 16:00:00 3,3 -7,1 5,7 -0,3 0,6 5,0 37 20 55 30 E 1022,5 18 60 0,0
24.02.2018 15:00:00 3,4 -8,3 6,8 -0,4 0,6 5,0 38 20 60 32 E 1022,4 14 60 0,0
24.02.2018 14:00:00 2,8 -8,5 5,1 -0,5 0,6 5,0 39 21 59 32 E 1022,5 11 60 0,0
24.02.2018 13:00:00 2,6 -9,0 5,9 -0,6 0,7 5,0 39 21 56 31 E 1022,6 14 60 0,0
24.02.2018 12:00:00 0,4 -10,7 2,8 -0,8 0,7 5,0 40 21 55 30 E 1023,4 13 60 0,0
24.02.2018 11:00:00 -1,3 -12,1 1,1 -1,1 0,7 5,0 36 19 48 26 E 1023,4 11 60 0,0
24.02.2018 10:00:00 -2,6 -11,8 -0,7 -1,5 0,7 5,0 32 17 46 25 E 1023,4 17 60 0,0
24.02.2018 09:00:00 -4,2 -11,8 -3,5 -1,8 0,7 5,0 27 15 36 19 E 1023,2 22 45 0,0
24.02.2018 08:00:00 -5,5 -11,5 -6,8 -1,8 0,8 5,0 19 11 39 21 E 1023,1 15 0 0,0
24.02.2018 07:00:00 -5,3 -11,5 -7,1 -1,7 0,8 5,0 26 14 38 21 ENE 1022,3 15 0 0,0
24.02.2018 06:00:00 -5,2 -11,1 -6,8 -1,5 0,8 5,0 25 14 41 22 E 1022,0 14 0 0,0
24.02.2018 05:00:00 -4,8 -10,9 -6,4 -1,4 0,8 5,1 30 16 43 23 E 1021,9 13 0 0,0
24.02.2018 04:00:00 -4,8 -10,3 -6,5 -1,2 0,8 5,1 26 14 37 20 E 1021,6 12 0 0,0
24.02.2018 03:00:00 -4,3 -10,2 -5,9 -1,1 0,8 5,1 26 14 37 20 E 1021,4 12 0 0,0
24.02.2018 02:00:00 -3,8 -10,2 -5,6 -0,9 0,9 5,1 26 14 38 21 E 1021,2 14 0 0,0
24.02.2018 01:00:00 -3,4 -11,0 -5,1 -0,8 0,9 5,1 31 17 41 22 E 1020,8 22 0 0,0
24.02.2018 00:00:00 -2,8 -11,0 -4,6 -0,6 0,9 5,1 31 17 39 21 E 1020,6 30 0 0,0
23.02.2018 23:00:00 -2,2 -10,5 -4,3 -0,3 0,9 5,1 29 16 38 20 E 1020,6 32 0 0,0
23.02.2018 22:00:00 -1,9 -8,7 -4,1 -0,2 0,9 5,1 25 13 33 18 E 1020,7 26 0 0,0
23.02.2018 21:00:00 -1,5 -8,1 -3,7 -0,1 0,9 5,1 22 12 28 15 ENE 1020,7 24 0 0,0
23.02.2018 20:00:00 -1,5 -6,8 -4,0 -0,1 0,9 5,1 17 9 34 18 ENE 1020,4 19 0 0,0
23.02.2018 19:00:00 -0,4 -7,2 -2,1 -0,1 0,9 5,1 25 14 35 19 ENE 1020,1 24 0 0,0
23.02.2018 18:00:00 0,7 -7,3 -1,2 -0,1 0,9 5,1 16 9 37 20 NE 1019,7 28 53 0,0
23.02.2018 17:00:00 1,5 -8,9 2,0 -0,2 0,9 5,1 29 16 41 22 ENE 1019,2 22 60 0,0
23.02.2018 16:00:00 1,6 -8,9 3,6 -0,2 0,9 5,1 32 18 45 25 ENE 1019,5 22 60 0,0
23.02.2018 15:00:00 1,1 -9,1 3,9 -0,2 0,9 5,1 31 17 43 23 ENE 1020,1 19 60 0,0
23.02.2018 14:00:00 0,6 -8,6 4,0 -0,3 0,9 5,1 31 17 42 23 ENE 1020,7 21 60 0,0
23.02.2018 13:00:00 0,2 -8,4 3,8 -0,3 1,0 5,1 32 18 48 26 ENE 1021,2 18 60 0,0
23.02.2018 12:00:00 -0,9 -8,7 2,0 -0,4 1,0 5,1 31 17 48 26 E 1021,6 14 60 0,0
23.02.2018 11:00:00 -1,6 -9,2 -0,1 -0,5 1,0 5,1 40 21 53 28 E 1021,7 15 60 0,0
23.02.2018 10:00:00 -2,0 -7,7 -0,6 -0,6 1,0 5,1 30 16 45 24 ENE 1021,8 20 60 0,0
23.02.2018 09:00:00 -2,9 -6,4 -2,7 -0,8 1,1 5,1 23 12 31 17 E 1021,9 13 42 0,0
23.02.2018 08:00:00 -4,2 -6,2 -5,7 -0,7 1,1 5,1 16 9 27 14 ENE 1022,0 8 0 0,0
23.02.2018 07:00:00 -4,1 -5,8 -5,7 -0,6 1,1 5,1 19 10 28 15 ENE 1021,8 7 0 0,0
23.02.2018 06:00:00 -3,7 -5,6 -5,2 -0,4 1,1 5,1 19 10 29 16 NE 1021,6 7 0 0,0
23.02.2018 05:00:00 -3,5 -5,9 -5,0 -0,3 1,2 5,1 18 10 32 17 NE 1021,6 9 0 0,0
23.02.2018 04:00:00 -3,1 -7,1 -4,8 -0,1 1,2 5,1 16 9 37 20 NE 1021,6 18 0 0,0
23.02.2018 03:00:00 -2,9 -7,1 -4,7 0,0 1,2 5,1 23 13 32 17 ENE 1021,6 19 0 0,0
23.02.2018 02:00:00 -2,5 -6,8 -4,3 0,0 1,2 5,1 23 12 34 18 ENE 1021,9 18 0 0,0
23.02.2018 01:00:00 -2,1 -6,4 -4,0 0,1 1,2 5,1 23 12 38 20 ENE 1021,9 15 0 0,0
23.02.2018 00:00:00 -1,8 -5,8 -3,5 0,1 1,2 5,1 29 16 42 23 ENE 1022,0 13 0 0,0
22.02.2018 23:00:00 -1,7 -5,1 -3,3 0,2 1,2 5,1 26 14 36 19 ENE 1022,2 10 0 0,0
22.02.2018 22:00:00 -1,6 -4,9 -3,2 0,2 1,2 5,1 26 14 41 22 ENE 1022,2 10 0 0,0
22.02.2018 21:00:00 -1,1 -4,6 -2,6 0,2 1,2 5,1 27 14 39 21 ENE 1022,1 11 0 0,0
22.02.2018 20:00:00 -0,2 -4,8 -1,7 0,2 1,2 5,1 26 14 39 21 NE 1021,9 15 0 0,0
22.02.2018 19:00:00 0,3 -5,2 -1,4 0,1 1,2 5,1 17 9 35 19 NE 1021,5 18 0 0,0
22.02.2018 18:00:00 1,0 -4,9 -0,6 0,0 1,2 5,1 16 9 35 19 NE 1021,1 20 50 0,0
22.02.2018 17:00:00 1,8 -4,7 1,9 0,0 1,2 5,1 21 11 39 21 NE 1020,9 17 60 0,0
22.02.2018 16:00:00 2,3 -4,7 3,7 0,0 1,2 5,1 22 12 39 21 NE 1021,0 23 53 0,0
22.02.2018 15:00:00 2,0 -5,5 3,7 0,0 1,3 5,1 23 12 40 22 NNE 1021,5 21 56 0,0
22.02.2018 14:00:00 2,0 -5,1 4,4 -0,1 1,3 5,1 28 15 40 22 ENE 1022,5 21 38 0,0
22.02.2018 13:00:00 1,8 -4,3 5,6 -0,1 1,3 5,1 21 12 37 20 ENE 1022,9 18 60 0,0
22.02.2018 12:00:00 0,6 -4,4 3,7 -0,1 1,3 5,1 19 10 41 22 ENE 1023,4 14 60 0,0
22.02.2018 11:00:00 -0,3 -5,1 1,0 -0,1 1,4 5,1 26 14 37 20 E 1023,6 13 60 0,0
22.02.2018 10:00:00 -1,3 -5,0 -0,1 -0,2 1,4 5,1 23 12 31 17 ENE 1023,8 - 60 0,0
22.02.2018 09:00:00 -2,3 -5,1 -2,3 -0,1 1,5 5,1 20 11 28 15 ENE 1023,8 9 40 0,0
22.02.2018 08:00:00 -3,6 -5,4 -5,4 -0,1 1,5 5,1 16 9 26 14 ENE 1023,7 6 0 0,0
22.02.2018 07:00:00 -3,9 -5,5 -5,9 0,0 1,6 5,1 14 7 20 11 ENE 1023,4 6 0 0,0
22.02.2018 06:00:00 -3,8 -5,2 -5,6 0,1 1,6 5,1 16 9 22 12 ENE 1023,1 4,7 0 0,0
22.02.2018 05:00:00 -3,4 -4,8 -5,0 0,1 1,6 5,1 17 9 27 15 ENE 1022,8 4,4 0 0,0
22.02.2018 04:00:00 -2,8 -4,5 -4,5 0,2 1,7 5,1 19 11 26 14 ENE 1023,0 4,8 0 0,0
22.02.2018 03:00:00 -2,6 -4,6 -4,4 0,3 1,7 5,1 19 10 25 13 ENE 1023,3 5 0 0,0
22.02.2018 02:00:00 -2,3 -4,3 -4,0 0,4 1,8 5,1 19 10 24 13 ENE 1023,4 5 0 0,0
22.02.2018 01:00:00 -2,2 -4,0 -3,9 0,4 1,8 5,1 19 10 27 15 ENE 1023,7 5 0 0,0
22.02.2018 00:00:00 -1,6 -4,2 -3,2 0,5 1,9 5,1 17 9 25 14 NE 1023,7 6 0 0,0
21.02.2018 23:00:00 -1,3 -4,2 -3,2 0,6 1,9 5,1 12 7 21 11 NE 1023,8 6 0 0,0
21.02.2018 22:00:00 -1,0 -4,3 -2,9 0,7 1,9 5,1 14 8 25 13 NE 1023,9 6 0 0,0
21.02.2018 21:00:00 -0,8 -4,3 -3,0 0,8 2,0 5,1 11 6 20 11 NE 1023,9 7 0 0,0
21.02.2018 20:00:00 -0,3 -4,1 -2,7 1,0 2,0 5,1 11 6 17 9 NNE 1023,8 8 0 0,0
21.02.2018 19:00:00 0,7 -4,3 -1,8 1,2 2,0 5,1 11 6 22 12 NE 1023,8 9 0 0,0
21.02.2018 18:00:00 1,4 -4,3 -0,6 1,7 1,9 5,1 14 7 24 13 NNE 1023,6 9 42 0,0
21.02.2018 17:00:00 2,3 -4,2 2,2 2,5 1,8 5,1 16 9 28 15 NNE 1023,5 10 60 0,0
21.02.2018 16:00:00 2,8 -2,9 4,1 2,7 1,6 5,1 17 9 27 14 NNE 1023,4 6 60 0,0
21.02.2018 15:00:00 2,4 -3,5 4,5 2,3 1,6 5,1 16 9 23 12 NNE 1024,0 5 60 0,0
21.02.2018 14:00:00 2,5 -2,8 5,6 0,8 1,6 5,1 14 8 25 14 NE 1024,6 4,5 60 0,0
21.02.2018 13:00:00 1,9 -2,9 4,6 0,2 1,7 5,1 15 8 25 14 NNE 1024,8 4,3 60 0,0
21.02.2018 12:00:00 1,0 -4,0 2,5 0,2 1,7 5,1 18 10 26 14 NE 1025,0 - 60 0,0
21.02.2018 11:00:00 0,3 -3,2 1,4 0,2 1,8 5,1 16 9 23 12 ENE 1025,0 3,7 58 0,0
21.02.2018 10:00:00 -0,8 -3,1 -0,6 0,2 1,8 5,1 13 7 18 10 ENE 1025,2 3,3 55 0,0
21.02.2018 09:00:00 -3,0 -3,8 -3,8 0,2 1,9 5,1 8 4 13 7 E 1025,3 1,9 3 0,0
21.02.2018 08:00:00 -3,6 -4,3 -6,3 0,3 1,9 5,1 7 4 13 7 ENE 1025,2 2,1 0 0,0
21.02.2018 07:00:00 -3,4 -4,2 -5,1 0,4 2,0 5,1 10 5 14 8 E 1024,6 1,8 0 0,0
21.02.2018 06:00:00 -3,6 -4,6 -5,5 0,4 2,0 5,2 10 6 18 10 ENE 1024,6 2,0 0 0,0
21.02.2018 05:00:00 -2,8 -4,2 -4,1 0,5 2,1 5,2 9 5 18 10 NE 1024,2 2,5 0 0,0
21.02.2018 04:00:00 -3,0 -4,3 -4,6 0,6 2,2 5,2 11 6 17 9 N 1023,7 2,5 0 0,0
21.02.2018 03:00:00 -2,8 -4,4 -5,0 0,7 2,2 5,2 11 6 16 8 NE 1023,3 2,9 0 0,0
21.02.2018 02:00:00 -2,2 -4,0 -4,3 0,8 2,3 5,2 12 6 16 8 NNE 1023,4 3,2 0 0,0
21.02.2018 01:00:00 -1,7 -3,8 -3,6 0,9 2,4 5,2 11 6 18 10 NNE 1023,2 3,8 0 0,0
21.02.2018 00:00:00 -1,3 -3,6 -3,3 1,0 2,5 5,2 12 6 19 11 NNE 1022,4 4,3 0 0,0
20.02.2018 23:00:00 -0,4 -3,3 -2,2 1,2 2,6 5,2 14 8 22 12 NE 1021,8 5 0 0,0
20.02.2018 22:00:00 0,5 -3,2 -1,4 1,3 2,7 5,2 14 8 21 12 NE 1021,2 6 0 0,0
20.02.2018 21:00:00 1,0 -3,1 -1,0 1,5 2,7 5,2 11 6 19 11 NE 1020,7 7 0 0,0
20.02.2018 20:00:00 1,4 -2,2 -0,6 1,9 2,8 5,2 11 6 20 11 NE 1020,3 7 0 0,0
20.02.2018 19:00:00 1,8 -1,6 -0,1 2,7 2,7 5,2 9 5 16 8 N 1019,6 5 0 0,0
20.02.2018 18:00:00 2,2 -0,8 1,0 3,4 2,6 5,2 11 6 16 9 N 1019,0 4,5 0 0,0
20.02.2018 17:00:00 3,1 -0,8 2,7 4,2 2,5 5,2 9 5 18 10 NE 1018,3 4,5 0 0,0
20.02.2018 16:00:00 3,4 -1,7 4,0 4,7 2,3 5,2 11 6 16 9 NNE 1018,1 5 1 0,0
20.02.2018 15:00:00 3,5 -1,7 5,0 4,6 2,0 5,2 11 6 16 9 N 1018,3 5 6 0,0
20.02.2018 14:00:00 3,4 -1,8 5,1 4,2 1,8 5,2 8 5 16 9 N 1018,2 6 3 0,0
20.02.2018 13:00:00 3,4 -1,8 6,7 3,7 1,7 5,2 9 5 16 9 NE 1018,2 7 39 0,0
20.02.2018 12:00:00 2,4 -2,1 4,7 1,9 1,7 5,2 7 4 13 7 NNE 1018,8 6 15 0,0
20.02.2018 11:00:00 1,9 -2,2 3,5 0,6 1,7 5,2 4 2 11 6 NE 1018,7 7 15 0,0
20.02.2018 10:00:00 0,1 -1,9 0,3 0,6 1,8 5,2 9 5 13 7 E 1018,3 5 11 0,0
20.02.2018 09:00:00 -0,4 -1,8 0,6 0,6 1,8 5,2 8 4 11 6 E 1018,4 4,3 31 0,0
20.02.2018 08:00:00 -1,2 -2,5 -4,0 0,6 1,8 5,2 6 3 8 4 E 1018,4 4,4 0 0,0
20.02.2018 07:00:00 -1,2 -2,2 -2,8 0,6 1,9 5,2 5 3 9 5 SSE 1018,2 4,7 0 0,0
20.02.2018 06:00:00 -0,8 -2,6 -3,0 0,7 1,9 5,2 5 3 11 6 ENE 1018,0 4,3 0 0,0
20.02.2018 05:00:00 -0,9 -2,5 -3,0 0,7 1,9 5,2 8 5 10 5 NNW 1018,1 6 0 0,0
20.02.2018 04:00:00 0,1 -2,5 -2,6 0,7 2,0 5,2 3 2 8 5 ENE 1017,8 7 0 0,0
20.02.2018 03:00:00 0,0 -1,9 -2,2 0,7 2,0 5,2 6 4 9 5 E 1017,6 7 0 0,0
20.02.2018 02:00:00 0,7 -2,3 -1,4 0,7 2,1 5,2 6 3 9 5 E 1017,3 8 0 0,0
20.02.2018 01:00:00 0,8 -2,3 -0,8 0,9 2,1 5,2 5 3 9 5 E 1018,0 8 0 0,0
20.02.2018 00:00:00 0,9 -2,5 -0,8 1,0 2,2 5,2 6 3 9 5 ENE 1017,8 9 0 0,0
19.02.2018 23:00:00 1,2 -2,7 -0,7 1,2 2,2 5,2 4 2 9 5 ENE 1017,7 9 0 0,0
19.02.2018 22:00:00 0,8 -2,0 -0,7 1,4 2,2 5,2 8 4 10 5 E 1018,1 8 0 0,0
19.02.2018 21:00:00 1,4 -1,8 -0,8 1,7 2,2 5,2 4 2 8 4 E 1018,2 9 0 0,0
19.02.2018 20:00:00 1,7 -2,0 0,2 2,0 2,2 5,2 4 2 7 4 ENE 1018,2 11 0 0,0
19.02.2018 19:00:00 1,7 -1,1 0,2 2,4 2,1 5,2 0 0 6 4 N 1018,2 10 0 0,0
19.02.2018 18:00:00 2,3 -1,9 1,3 2,9 1,9 5,2 6 4 9 5 WSW 1018,1 11 0 0,0
19.02.2018 17:00:00 3,0 -2,4 3,1 3,2 1,8 5,2 7 4 14 8 WSW 1018,1 13 0 0,0
19.02.2018 16:00:00 3,2 -2,6 4,5 3,0 1,7 5,2 8 5 14 8 W 1018,5 13 22 0,0
19.02.2018 15:00:00 3,5 -2,7 6,1 0,9 1,7 5,2 3 2 9 5 S 1018,8 12 23 0,0
19.02.2018 14:00:00 2,2 -3,0 3,0 0,4 1,8 5,2 6 3 10 5 SW 1019,5 12 0 0,0
19.02.2018 13:00:00 1,6 -2,7 2,2 0,4 1,8 5,2 6 3 11 6 WSW 1019,8 10 0 0,0
19.02.2018 12:00:00 1,1 -2,3 1,7 0,4 1,9 5,2 7 4 9 5 WSW 1020,2 10 0 0,0
19.02.2018 11:00:00 0,3 -3,1 0,6 0,4 1,9 5,2 4 2 9 5 W 1020,6 9 0 0,0
19.02.2018 10:00:00 -0,1 -3,0 -0,1 0,4 2,0 5,2 5 3 8 4 S 1020,8 11 0 0,0
19.02.2018 09:00:00 -1,1 -3,8 -1,8 0,4 2,0 5,2 6 4 9 5 SSW 1021,0 10 0 0,0
19.02.2018 08:00:00 -1,4 -3,5 -2,5 0,5 2,1 5,2 4 2 6 4 S 1021,5 9 0 0,0
19.02.2018 07:00:00 -1,4 -3,3 -2,6 0,5 2,1 5,2 5 3 11 6 SW 1021,4 8 0 0,0
19.02.2018 06:00:00 -1,3 -3,6 -2,6 0,6 2,2 5,2 7 4 11 6 WSW 1021,6 8 0 0,0

tt = Température de l'air
td = dewpoint
tt 5cm = Température de l'air 5cm
tt -5cm = Température de l'air -5cm
tt -20cm = Température de l'air -20cm
tt -100cm = Température de l'air -100cm
ff = Vitesse du vent
fx = gusts
dd = Direction du vent
ppp = reduced air pressure
vv = visibility
sd = Ensoleillement
rr = Quantités de précipitations

stations d'obs. à proximité